Weather Roundup
Issued by NWS

Home | Current Version | Previous Version | Graphics & Text | Print | Product List | Glossary Off
Versions: 1 2 3 4 5 6 7 8 9 10 11 12 13 14 15 16 17 18 19 20 21 22 23 24 25 26 27 28 29 30 31 32 33 34 35 36 37 38 39 40 41 42 43 44 45 46 47 48 49 50

654
NZUS93 KARX 200810
HRRWXR

CURRENT HOURLY OBSERVATIONS ACROSS
MUCH OF THE UPPER MISSISSIPPI VALLEY
NATIONAL WEATHER SERVICE LA CROSSE WI
200 AM CST SAT JAN 20 2018


...SOUTHEAST MINNESOTA...


CITY           SKY/WX    TMP DP  RH WIND       PRES   REMARKS
ROCHESTER      FAIR      32  29  88 NW12      29.75R WCI  23
ROCHESTER/MAYO FAIR      34  31  87 W6        29.76R WCI  29
WINONA         FAIR      30  28  93 CALM      29.74R
AUSTIN         NOT AVBL
ALBERT LEA     FAIR      34  28  80 NW3       29.75R
DODGE CENTER   FAIR      27  27 100 CALM      29.75R
PRESTON        FAIR      33  30  88 W6        29.74R WCI  27
OWATONNA       FAIR      30  27  86 W3        29.75S
FARIBAULT      FAIR      27  25  93 CALM      29.76R FOG
$$

...ELSEWHERE IN MINNESOTA...


CITY           SKY/WX    TMP DP  RH WIND       PRES   REMARKS
MINNEAPOLIS    MOCLDY    31  28  89 S3        29.76R
INTNL FALLS    CLOUDY    35  29  78 W7        29.63R WCI  29
DULUTH         FAIR      33  29  85 NW12      29.65R WCI  24
RED WING       FAIR      27  25  93 CALM      29.75R FOG
REDWOOD FALLS  PTCLDY    31  27  85 NW8       29.77R WCI  23
MANKATO        FAIR      32  29  88 N5        29.76S WCI  27
WORTHINGTON    CLOUDY    28  26  92 NW9       29.76S WCI  19
FAIRMONT       CLOUDY    31  29  92 NW6       29.77R WCI  25
$$

...SOUTHWEST WISCONSIN...


CITY           SKY/WX    TMP DP  RH WIND       PRES   REMARKS
LA CROSSE      FAIR      31  28  89 S8        29.75R WCI  23
PRAIRIE DU CHI FAIR      31  26  82 CALM      29.77R
BOSCOBEL       FAIR      32  27  81 S3        29.77R
LONE ROCK      FAIR      27  24  89 SW3       29.77R
PLATTEVILLE    FAIR      32  29  88 SW7       29.77R WCI  25
FORT MC COY    FAIR      26  25  96 CALM      29.75R
CAMP DOUGLAS   FAIR      26  25  98 CALM      29.72R
MAUSTON-NEW LI FAIR      33  28  84 CALM      29.72R
VIROQUA        FAIR      33  32  96 W8        29.72R WCI  26
WIS DELLS      FAIR      34  27  76 SW6       29.73R WCI  29
$$

...ELSEWHERE IN WISCONSIN...


CITY           SKY/WX    TMP DP  RH WIND       PRES   REMARKS
MILWAUKEE      FAIR      40  29  64 W13G22    29.73R WCI  32
MADISON        FAIR      34  27  75 CALM      29.75R
GREEN BAY      FAIR      34  27  75 SW5       29.68R WCI  30
EAU CLAIRE     FAIR      32  28  85 W6        29.73R WCI  26
BLACK RVR FLS  FAIR      28  28 100 CALM      29.74R
MEDFORD        FAIR      30  26  86 W5        29.69R WCI  25
WAUSAU         FAIR      34  28  79 NW9       29.68R WCI  27
WIS RAPIDS     FAIR      31  26  82 CALM      29.72R
MARSHFIELD     FAIR      31  27  85 W5        29.70R WCI  26
RICE LAKE      FOG       22  21  96 CALM      29.74R VSB 1/2
$$

...NORTHEAST IOWA...


CITY           SKY/WX    TMP DP  RH WIND       PRES   REMARKS
WATERLOO       FAIR      31  27  85 W5        29.77R WCI  26
DUBUQUE        FAIR      31  25  78 SW7       29.77R WCI  24
DECORAH        FAIR      34  30  86 W3        29.74R
MASON CITY     CLOUDY    29  27  92 CALM      29.76R
CHARLES CITY   FAIR      32  32 100 W6        29.76R WCI  26
OELWEIN        FAIR      32  32 100 W7        29.77R WCI  26
$$

...ELSEWHERE IN IOWA...


CITY           SKY/WX    TMP DP  RH WIND       PRES   REMARKS
DES MOINES     PTCLDY    34  27  75 SW3       29.79R
IOWA CITY      FAIR      34  26  72 S3        29.82R
FORT DODGE     CLOUDY    28  26  92 CALM      29.77R
MARSHALLTOWN   PTCLDY    32  28  85 SW7       29.76F WCI  26
CEDAR RAPIDS   FAIR      34  28  79 SW9       29.78R WCI  27
$$

...NORTHERN ILLINOIS...


CITY           SKY/WX    TMP DP  RH WIND       PRES   REMARKS
CHICAGO-OHARE  FAIR      37  27  67 SW12      29.80R WCI  29
CHICAGO-MIDWAY MOCLDY    38  28  67 SW13      29.82R WCI  30
MOLINE         FAIR      39  29  67 SW10      29.81R WCI  32
ROCKFORD       FAIR      38  28  67 SW9       29.81R WCI  31
PEORIA         FAIR      35  27  72 S9        29.88R WCI  28
$$

NOTE: "FAIR" INDICATES FEW OR NO CLOUDS BELOW 12,000 FEET WITH NO
SIGNIFICANT WEATHER AND/OR OBSTRUCTIONS TO VISIBILITY. WIND
SPEEDS ARE IN MILES-PER-HOUR.




USA.gov is the U.S. government's official web portal to all federal, state and local government web resources and services.